Location: Casilda
(33.0440°S, 61.1680°W)
Time: 17:47:15
(UTC-03:00)

ISS - Pass Details

Date: 17 October 2018
Orbit: 403 x 408 km, 51.6° (Epoch: 17 October)

Event Time Altitude Azimuth Distance (km) Brightness Sun altitude
Exits shadow 04:34:49 - 205° (SSW) 2,033 -0.2 -21.9°
Reaches altitude 10° 04:36:41 10° 185° (S) 1,483 -0.7 -21.5°
Maximum altitude 04:38:41 15° 148° (SSE) 1,218 -0.7 -21.2°
Drops below altitude 10° 04:40:40 10° 111° (ESE) 1,475 0.2 -20.8°
Sets 04:43:26 0° 86° (E) 2,329 1.0 -20.3°
